{"data":{"norad_id":55051,"epoch":"2026-05-24T23:55:00.552288Z","epoch_age_seconds":75545,"freshness":"FRESH","line1":"1 55051U 23001AU  26144.99653417  .00006109  00000+0  22395-3 0  9992","line2":"2 55051  97.5694 240.9342 0016505  95.2064 265.1059 15.28244873187799","mean_motion":15.28244873,"eccentricity":0.0016505,"inclination_deg":97.5694,"raan_deg":240.9342,"arg_perigee_deg":95.2064,"mean_anomaly_deg":265.1059,"bstar":0.00022395,"rev_number":18779,"period_min":94.225737343599,"perigee_km":469.73784599594,"apogee_km":492.38005182329,"semimajor_km":6859.1959489096,"source":"CELESTRAK","updated_at":"2026-05-25T13:37:58.812412Z"}}